When you browse on this site, cookies collect data to enhance your experience and personalize the content and advertising you see.
Visit our Privacy Policy to learn more. By continuing to use the site, you agree to this use of cookies and data.
  • In Norway
  • List of Countries
  • For 7 days
  • Water Temperature
  • Satellite Maps
  • Weather Map
  • Weather Widgets
  • user-avatar
    Login

    Hourly Weather Darwin

    Today, 11 December, Tuesday

    Time Temperature Precipitation Wind Pressure Humidity
    00:00 +30°C° 1.2 mm 3 mps 754 mmHg 82%
    01:00 +30°C° 0 mm 3 mps 754 mmHg 83%
    02:00 +30°C° 0 mm 3 mps 754 mmHg 84%
    03:00 +30°C° 0 mm 4 mps 753 mmHg 87%
    04:00 +30°C° 0 mm 4 mps 753 mmHg 88%
    05:00 +30°C° 0 mm 4 mps 754 mmHg 89%
    06:00 +30°C° 0 mm 4 mps 754 mmHg 89%
    07:00 +32°C° 0.1 mm 4 mps 754 mmHg 83%
    08:00 +34°C° 0.1 mm 4 mps 755 mmHg 76%
    09:00 +35°C° 0.1 mm 4 mps 755 mmHg 69%
    10:00 +36°C° 0.2 mm 4 mps 755 mmHg 65%
    11:00 +37°C° 0.2 mm 5 mps 754 mmHg 61%
    12:00 +39°C° 0.2 mm 5 mps 754 mmHg 58%
    13:00 +39°C° 0.6 mm 5 mps 754 mmHg 58%
    14:00 +39°C° 0.6 mm 6 mps 753 mmHg 59%
    15:00 +38°C° 0.6 mm 6 mps 753 mmHg 60%
    16:00 +36°C° 1.4 mm 6 mps 753 mmHg 67%
    17:00 +34°C° 1.4 mm 6 mps 753 mmHg 74%
    18:00 +33°C° 1.4 mm 6 mps 753 mmHg 80%
    19:00 +32°C° 0.3 mm 5 mps 753 mmHg 82%
    20:00 +32°C° 0.3 mm 5 mps 754 mmHg 83%
    21:00 +32°C° 0.3 mm 4 mps 755 mmHg 84%
    22:00 +32°C° 0.1 mm 5 mps 755 mmHg 85%
    23:00 +32°C° 0.1 mm 5 mps 754 mmHg 85%

    Tomorrow, 12 December, Wednesday

    Time Temperature Precipitation Wind Pressure Humidity
    00:00 +32°C° 0.1 mm 6 mps 754 mmHg 86%
    01:00 +32°C° 0 mm 6 mps 754 mmHg 86%
    02:00 +32°C° 0 mm 6 mps 753 mmHg 87%
    03:00 +32°C° 0 mm 6 mps 753 mmHg 87%
    04:00 +32°C° 0 mm 6 mps 753 mmHg 87%
    05:00 +32°C° 0 mm 6 mps 753 mmHg 87%
    06:00 +32°C° 0 mm 6 mps 754 mmHg 86%
    07:00 +33°C° 0 mm 6 mps 754 mmHg 80%
    08:00 +34°C° 0 mm 6 mps 754 mmHg 75%
    09:00 +35°C° 0 mm 5 mps 755 mmHg 69%
    10:00 +36°C° 0 mm 6 mps 754 mmHg 64%
    11:00 +38°C° 0 mm 6 mps 754 mmHg 60%
    12:00 +39°C° 0 mm 6 mps 754 mmHg 55%
    13:00 +39°C° 0 mm 6 mps 753 mmHg 56%
    14:00 +39°C° 0 mm 6 mps 752 mmHg 57%
    15:00 +39°C° 0 mm 7 mps 752 mmHg 58%
    16:00 +38°C° 0 mm 7 mps 752 mmHg 64%
    17:00 +35°C° 0 mm 7 mps 752 mmHg 70%
    18:00 +34°C° 0 mm 6 mps 752 mmHg 76%
    19:00 +34°C° 0 mm 6 mps 752 mmHg 77%
    20:00 +33°C° 0 mm 6 mps 753 mmHg 78%
    21:00 +33°C° 0 mm 6 mps 753 mmHg 79%
    22:00 +33°C° 0 mm 6 mps 753 mmHg 80%
    23:00 +33°C° 0 mm 7 mps 753 mmHg 81%

    Day after tomorrow, 13 December, Thursday

    Time Temperature Precipitation Wind Pressure Humidity
    00:00 +33°C° 0 mm 7 mps 754 mmHg 82%
    01:00 +33°C° 0 mm 7 mps 753 mmHg 81%
    02:00 +33°C° 0 mm 7 mps 753 mmHg 81%
    03:00 +33°C° 0 mm 7 mps 753 mmHg 80%
    04:00 +33°C° 0 mm 7 mps 753 mmHg 80%
    05:00 +33°C° 0 mm 6 mps 753 mmHg 81%
    06:00 +33°C° 0 mm 6 mps 753 mmHg 81%
    07:00 +33°C° 0 mm 6 mps 754 mmHg 78%
    08:00 +34°C° 0 mm 6 mps 754 mmHg 75%
    09:00 +34°C° 0 mm 6 mps 755 mmHg 73%
    10:00 +35°C° 0 mm 7 mps 754 mmHg 69%
    11:00 +36°C° 0 mm 7 mps 754 mmHg 66%
    12:00 +36°C° 0 mm 7 mps 754 mmHg 63%
    13:00 +36°C° 0 mm 7 mps 753 mmHg 63%
    14:00 +37°C° 0 mm 8 mps 753 mmHg 63%
    15:00 +37°C° 0 mm 8 mps 752 mmHg 62%
    16:00 +36°C° 0 mm 7 mps 752 mmHg 66%
    17:00 +35°C° 0 mm 7 mps 752 mmHg 69%
    18:00 +34°C° 0 mm 7 mps 753 mmHg 72%
    19:00 +34°C° 0 mm 7 mps 753 mmHg 75%
    20:00 +33°C° 0 mm 7 mps 753 mmHg 77%
    21:00 +33°C° 0 mm 6 mps 754 mmHg 79%
    22:00 +33°C° 0 mm 6 mps 754 mmHg 79%
    23:00 +33°C° 0 mm 6 mps 754 mmHg 79%

    14 December, Friday

    Time Temperature Precipitation Wind Pressure Humidity
    00:00 +33°C° 0 mm 6 mps 754 mmHg 80%
    01:00 +33°C° 0 mm 7 mps 753 mmHg 80%
    02:00 +33°C° 0 mm 7 mps 752 mmHg 80%
    03:00 +33°C° 0 mm 7 mps 752 mmHg 80%
    04:00 +32°C° 0.2 mm 7 mps 752 mmHg 81%
    05:00 +32°C° 0.2 mm 7 mps 753 mmHg 82%
    06:00 +32°C° 0.2 mm 6 mps 753 mmHg 83%
    07:00 +32°C° 2 mm 6 mps 754 mmHg 83%
    08:00 +32°C° 2 mm 7 mps 755 mmHg 83%
    09:00 +32°C° 2 mm 7 mps 755 mmHg 83%
    10:00 +30°C° 4.4 mm 6 mps 755 mmHg 84%
    11:00 +30°C° 4.4 mm 5 mps 755 mmHg 86%
    12:00 +30°C° 4.4 mm 4 mps 754 mmHg 87%
    13:00 +30°C° 0 mm 4 mps 754 mmHg 83%
    14:00 +32°C° 0 mm 4 mps 753 mmHg 80%
    15:00 +33°C° 0 mm 4 mps 752 mmHg 76%
    16:00 +33°C° 0 mm 4 mps 752 mmHg 76%
    17:00 +33°C° 0 mm 4 mps 752 mmHg 75%
    18:00 +33°C° 0 mm 3 mps 753 mmHg 75%
    19:00 +31°C° 0 mm 3 mps 753 mmHg 76%
    20:00 +31°C° 0 mm 3 mps 753 mmHg 78%
    21:00 +30°C° 0 mm 3 mps 754 mmHg 79%
    22:00 +30°C° 0.6 mm 4 mps 754 mmHg 82%
    23:00 +30°C° 0.6 mm 4 mps 754 mmHg 84%

    15 December, Saturday

    Time Temperature Precipitation Wind Pressure Humidity
    00:00 +30°C° 0.6 mm 4 mps 754 mmHg 87%
    01:00 +29°C° 1 mm 4 mps 753 mmHg 87%
    02:00 +29°C° 1 mm 3 mps 753 mmHg 88%
    03:00 +29°C° 1 mm 3 mps 753 mmHg 89%
    04:00 +29°C° 0.7 mm 4 mps 753 mmHg 89%
    05:00 +29°C° 0.7 mm 4 mps 753 mmHg 89%
    06:00 +29°C° 0.7 mm 4 mps 753 mmHg 89%
    07:00 +30°C° 0.1 mm 4 mps 754 mmHg 84%
    08:00 +33°C° 0.1 mm 4 mps 754 mmHg 78%
    09:00 +34°C° 0.1 mm 5 mps 754 mmHg 73%
    10:00 +35°C° 0 mm 5 mps 754 mmHg 69%
    11:00 +36°C° 0 mm 5 mps 754 mmHg 65%
    12:00 +37°C° 0 mm 5 mps 753 mmHg 61%
    13:00 +37°C° 0.3 mm 5 mps 753 mmHg 63%
    14:00 +36°C° 0.3 mm 5 mps 752 mmHg 64%
    15:00 +36°C° 0.3 mm 5 mps 752 mmHg 65%
    16:00 +35°C° 0.2 mm 5 mps 752 mmHg 68%
    17:00 +35°C° 0.2 mm 4 mps 752 mmHg 72%
    18:00 +34°C° 0.2 mm 4 mps 753 mmHg 75%
    19:00 +33°C° 0 mm 4 mps 753 mmHg 78%
    20:00 +33°C° 0 mm 4 mps 754 mmHg 81%
    21:00 +31°C° 0 mm 3 mps 754 mmHg 84%
    22:00 +32°C° 0.2 mm 4 mps 754 mmHg 86%
    23:00 +32°C° 0.2 mm 4 mps 754 mmHg 87%

    16 December, Sunday

    Time Temperature Precipitation Wind Pressure Humidity
    00:00 +30°C° 0.2 mm 4 mps 754 mmHg 88%
    01:00 +30°C° 0.7 mm 4 mps 754 mmHg 89%
    02:00 +30°C° 0.7 mm 4 mps 753 mmHg 90%
    03:00 +30°C° 0.7 mm 4 mps 753 mmHg 91%
    04:00 +30°C° 0.3 mm 4 mps 754 mmHg 91%
    05:00 +30°C° 0.3 mm 4 mps 754 mmHg 92%
    06:00 +30°C° 0.3 mm 4 mps 754 mmHg 92%
    07:00 +32°C° 0 mm 4 mps 755 mmHg 87%
    08:00 +33°C° 0 mm 4 mps 755 mmHg 82%
    09:00 +34°C° 0 mm 3 mps 756 mmHg 77%
    10:00 +35°C° 0 mm 4 mps 755 mmHg 72%
    11:00 +36°C° 0 mm 4 mps 755 mmHg 67%
    12:00 +37°C° 0 mm 4 mps 755 mmHg 61%
    13:00 +37°C° 0.1 mm 4 mps 754 mmHg 60%
    14:00 +38°C° 0.1 mm 4 mps 754 mmHg 59%
    15:00 +38°C° 0.1 mm 4 mps 753 mmHg 58%
    16:00 +37°C° 0.1 mm 4 mps 753 mmHg 63%
    17:00 +36°C° 0.1 mm 4 mps 754 mmHg 68%
    18:00 +35°C° 0.1 mm 4 mps 754 mmHg 73%
    19:00 +34°C° 0 mm 4 mps 754 mmHg 77%
    20:00 +33°C° 0 mm 3 mps 755 mmHg 81%
    21:00 +31°C° 0 mm 3 mps 755 mmHg 85%
    22:00 +31°C° 0 mm 3 mps 755 mmHg 85%
    23:00 +31°C° 0 mm 3 mps 754 mmHg 86%
    Show more